When you browse on this site, cookies collect data to enhance your experience and personalize the content and advertising you see.
Visit our Privacy Policy to learn more. By continuing to use the site, you agree to this use of cookies and data.
  • In Hungary
  • List of Countries
  • For 7 days
  • Water Temperature
  • Weather Map
  • News
  • Weather Widgets
  • user-avatar
    Login

    Hourly Weather Parakou

    Today, 12 November, Tuesday

    Time Temperature Precipitation Wind Pressure Humidity
    00:00 +27°C° 0 mm 2 mps 725 mmHg 62%
    01:00 +27°C° 0 mm 2 mps 725 mmHg 67%
    02:00 +26°C° 0 mm 2 mps 724 mmHg 72%
    03:00 +26°C° 0 mm 2 mps 724 mmHg 77%
    04:00 +25°C° 0 mm 2 mps 724 mmHg 81%
    05:00 +25°C° 0 mm 1 mps 724 mmHg 85%
    06:00 +24°C° 0 mm 1 mps 725 mmHg 89%
    07:00 +26°C° 0 mm 1 mps 725 mmHg 80%
    08:00 +29°C° 0 mm 1 mps 726 mmHg 72%
    09:00 +31°C° 0 mm 2 mps 726 mmHg 64%
    10:00 +33°C° 0 mm 1 mps 726 mmHg 54%
    11:00 +35°C° 0 mm 1 mps 725 mmHg 44%
    12:00 +36°C° 0 mm 0 mps 725 mmHg 34%
    13:00 +36°C° 0 mm 0 mps 724 mmHg 32%
    14:00 +35°C° 0 mm 0 mps 724 mmHg 31%
    15:00 +35°C° 0 mm 0 mps 723 mmHg 29%
    16:00 +33°C° 0 mm 0 mps 723 mmHg 33%
    17:00 +33°C° 0 mm 1 mps 723 mmHg 37%
    18:00 +31°C° 0 mm 1 mps 724 mmHg 40%
    19:00 +31°C° 0 mm 2 mps 724 mmHg 45%
    20:00 +30°C° 0 mm 2 mps 725 mmHg 50%
    21:00 +29°C° 0 mm 2 mps 725 mmHg 55%
    22:00 +28°C° 0.1 mm 2 mps 725 mmHg 62%
    23:00 +27°C° 0.1 mm 2 mps 725 mmHg 70%

    Tomorrow, 13 November, Wednesday

    Time Temperature Precipitation Wind Pressure Humidity
    00:00 +27°C° 0.1 mm 2 mps 725 mmHg 77%
    01:00 +26°C° 0.1 mm 2 mps 725 mmHg 81%
    02:00 +26°C° 0.1 mm 2 mps 725 mmHg 84%
    03:00 +25°C° 0.1 mm 2 mps 724 mmHg 88%
    04:00 +25°C° 0 mm 2 mps 725 mmHg 89%
    05:00 +25°C° 0 mm 2 mps 725 mmHg 91%
    06:00 +25°C° 0 mm 1 mps 725 mmHg 92%
    07:00 +27°C° 0 mm 2 mps 726 mmHg 84%
    08:00 +28°C° 0 mm 2 mps 726 mmHg 75%
    09:00 +30°C° 0 mm 2 mps 726 mmHg 67%
    10:00 +32°C° 0.3 mm 2 mps 726 mmHg 59%
    11:00 +34°C° 0.3 mm 1 mps 726 mmHg 51%
    12:00 +36°C° 0.3 mm 1 mps 725 mmHg 42%
    13:00 +36°C° 0 mm 1 mps 725 mmHg 41%
    14:00 +34°C° 0 mm 0 mps 724 mmHg 39%
    15:00 +34°C° 0 mm 0 mps 724 mmHg 37%
    16:00 +32°C° 0 mm 0 mps 724 mmHg 41%
    17:00 +31°C° 0 mm 0 mps 724 mmHg 44%
    18:00 +31°C° 0 mm 1 mps 724 mmHg 48%
    19:00 +31°C° 0 mm 1 mps 725 mmHg 50%
    20:00 +30°C° 0 mm 1 mps 725 mmHg 52%
    21:00 +29°C° 0 mm 1 mps 726 mmHg 54%
    22:00 +29°C° 0 mm 1 mps 726 mmHg 56%
    23:00 +26°C° 0 mm 0 mps 726 mmHg 57%

    Day after tomorrow, 14 November, Thursday

    Time Temperature Precipitation Wind Pressure Humidity
    00:00 +26°C° 0 mm 0 mps 726 mmHg 59%
    01:00 +28°C° 0 mm 1 mps 725 mmHg 61%
    02:00 +27°C° 0 mm 1 mps 725 mmHg 63%
    03:00 +27°C° 0 mm 1 mps 725 mmHg 65%
    04:00 +26°C° 0 mm 1 mps 725 mmHg 69%
    05:00 +26°C° 0 mm 1 mps 726 mmHg 74%
    06:00 +26°C° 0 mm 1 mps 726 mmHg 78%
    07:00 +26°C° 0 mm 0 mps 726 mmHg 72%
    08:00 +28°C° 0 mm 0 mps 727 mmHg 65%
    09:00 +30°C° 0 mm 0 mps 727 mmHg 59%
    10:00 +33°C° 0 mm 1 mps 727 mmHg 50%
    11:00 +34°C° 0 mm 1 mps 726 mmHg 41%
    12:00 +37°C° 0 mm 2 mps 726 mmHg 32%
    13:00 +37°C° 0 mm 2 mps 725 mmHg 30%
    14:00 +37°C° 0 mm 2 mps 725 mmHg 27%
    15:00 +37°C° 0 mm 2 mps 724 mmHg 25%
    16:00 +34°C° 0 mm 1 mps 724 mmHg 28%
    17:00 +32°C° 0 mm 1 mps 724 mmHg 31%
    18:00 +30°C° 0 mm 1 mps 724 mmHg 34%
    19:00 +28°C° 0 mm 0 mps 725 mmHg 35%
    20:00 +27°C° 0 mm 0 mps 725 mmHg 36%
    21:00 +27°C° 0 mm 0 mps 726 mmHg 36%
    22:00 +26°C° 0 mm 0 mps 725 mmHg 39%
    23:00 +28°C° 0 mm 1 mps 725 mmHg 41%

    15 November, Friday

    Time Temperature Precipitation Wind Pressure Humidity
    00:00 +27°C° 0 mm 1 mps 725 mmHg 43%
    01:00 +26°C° 0 mm 1 mps 725 mmHg 49%
    02:00 +26°C° 0 mm 1 mps 725 mmHg 56%
    03:00 +23°C° 0 mm 0 mps 724 mmHg 63%
    04:00 +23°C° 0 mm 0 mps 725 mmHg 68%
    05:00 +23°C° 0 mm 0 mps 725 mmHg 73%
    06:00 +25°C° 0 mm 1 mps 725 mmHg 78%
    07:00 +27°C° 0 mm 1 mps 726 mmHg 72%
    08:00 +29°C° 0 mm 1 mps 726 mmHg 66%
    09:00 +31°C° 0 mm 1 mps 727 mmHg 60%
    10:00 +33°C° 0 mm 1 mps 726 mmHg 50%
    11:00 +35°C° 0 mm 1 mps 726 mmHg 41%
    12:00 +35°C° 0 mm 0 mps 725 mmHg 31%
    13:00 +37°C° 0 mm 1 mps 725 mmHg 29%
    14:00 +37°C° 0 mm 1 mps 724 mmHg 27%
    15:00 +37°C° 0 mm 1 mps 723 mmHg 25%
    16:00 +35°C° 0 mm 1 mps 723 mmHg 28%
    17:00 +31°C° 0 mm 0 mps 723 mmHg 31%
    18:00 +29°C° 0 mm 0 mps 724 mmHg 35%
    19:00 +28°C° 0 mm 0 mps 724 mmHg 38%
    20:00 +30°C° 0 mm 1 mps 725 mmHg 41%
    21:00 +29°C° 0 mm 1 mps 725 mmHg 44%
    22:00 +28°C° 0 mm 1 mps 725 mmHg 53%
    23:00 +27°C° 0 mm 1 mps 725 mmHg 62%

    16 November, Saturday

    Time Temperature Precipitation Wind Pressure Humidity
    00:00 +27°C° 0 mm 1 mps 725 mmHg 71%
    01:00 +26°C° 0 mm 1 mps 724 mmHg 76%
    02:00 +26°C° 0 mm 1 mps 724 mmHg 82%
    03:00 +25°C° 0 mm 2 mps 724 mmHg 87%
    04:00 +25°C° 0 mm 1 mps 724 mmHg 90%
    05:00 +25°C° 0 mm 1 mps 725 mmHg 92%
    06:00 +25°C° 0 mm 1 mps 725 mmHg 94%
    07:00 +27°C° 0 mm 1 mps 725 mmHg 84%
    08:00 +29°C° 0 mm 1 mps 726 mmHg 74%
    09:00 +31°C° 0 mm 1 mps 726 mmHg 64%
    10:00 +33°C° 0 mm 1 mps 726 mmHg 54%
    11:00 +34°C° 0 mm 0 mps 726 mmHg 44%
    12:00 +36°C° 0 mm 0 mps 725 mmHg 34%
    13:00 +36°C° 0 mm 0 mps 724 mmHg 32%
    14:00 +36°C° 0 mm 0 mps 724 mmHg 30%
    15:00 +37°C° 0 mm 1 mps 723 mmHg 29%
    16:00 +35°C° 0 mm 1 mps 723 mmHg 33%
    17:00 +34°C° 0 mm 1 mps 723 mmHg 37%
    18:00 +32°C° 0 mm 1 mps 723 mmHg 41%
    19:00 +31°C° 0 mm 1 mps 724 mmHg 44%
    20:00 +30°C° 0 mm 1 mps 724 mmHg 47%
    21:00 +30°C° 0 mm 1 mps 725 mmHg 51%
    22:00 +29°C° 0 mm 1 mps 725 mmHg 54%
    23:00 +28°C° 0 mm 1 mps 725 mmHg 57%

    17 November, Sunday

    Time Temperature Precipitation Wind Pressure Humidity
    00:00 +28°C° 0 mm 1 mps 725 mmHg 60%
    01:00 +27°C° 0 mm 2 mps 725 mmHg 67%
    02:00 +27°C° 0 mm 2 mps 724 mmHg 73%
    03:00 +26°C° 0 mm 2 mps 724 mmHg 80%
    04:00 +26°C° 0 mm 2 mps 724 mmHg 84%
    05:00 +25°C° 0 mm 1 mps 725 mmHg 87%
    06:00 +25°C° 0 mm 1 mps 725 mmHg 91%
    07:00 +27°C° 0 mm 1 mps 725 mmHg 80%
    08:00 +29°C° 0 mm 1 mps 726 mmHg 70%
    09:00 +32°C° 0 mm 1 mps 726 mmHg 60%
    10:00 +34°C° 0 mm 1 mps 726 mmHg 51%
    11:00 +36°C° 0 mm 1 mps 726 mmHg 41%
    12:00 +36°C° 0 mm 0 mps 725 mmHg 32%
    13:00 +39°C° 0 mm 1 mps 725 mmHg 30%
    14:00 +39°C° 0 mm 1 mps 724 mmHg 27%
    15:00 +39°C° 0 mm 1 mps 723 mmHg 25%
    16:00 +36°C° 0 mm 1 mps 723 mmHg 28%
    17:00 +34°C° 0 mm 1 mps 724 mmHg 31%
    18:00 +32°C° 0 mm 1 mps 724 mmHg 35%
    19:00 +31°C° 0 mm 1 mps 724 mmHg 38%
    20:00 +30°C° 0 mm 1 mps 725 mmHg 40%
    21:00 +29°C° 0 mm 1 mps 725 mmHg 43%
    22:00 +29°C° 0 mm 1 mps 726 mmHg 47%
    23:00 +28°C° 0 mm 1 mps 726 mmHg 50%
    Show more